Tracking 25405 objects as of 27-Jan-2022
HD Live streaming from Space Station
objects crossing your sky now

EKRAN 4

Track EKRAN 4 now!
EKRAN 4 is classified as:


NORAD ID: 11561
Int'l Code: 1979-087A
Perigee: 35,767.6 km
Apogee: 35,813.0 km
Inclination: 9.5 °
Period: 1,435.9 minutes
Semi major axis: 42161 km
RCS: 0.1995 m2 (medium)
Launch date: October 3, 1979
Source: Commonwealth of Independent States (former USSR) (CIS)
Launch site: TYURATAM MISSILE AND SPACE COMPLEX (TTMTR)
aabbcc
Your satellite tracking list
Your tracking list is empty




NASA's NSSDC Master Catalog

Two Line Element Set (TLE):
1 11561U 79087A   22025.71889994 -.00000264  00000-0  00000-0 0  9994
2 11561   9.4946 302.7162 0005374 109.9466  67.6233  1.00284093 31292
Source of the keplerian elements: AFSPC